Location: Dayton
(39.7590°N, 84.1920°W)
Time: 06:18:21
(UTC-04:00)

ATLAS CENTAUR R/B - Visible Passes

Search period start: 24 August 2016 00:00
Search period end: 03 September 2016 00:00
Orbit: 221 x 8340 km, 57.3° (Epoch: 31 March)

Date Brightness Start Highest point End Pass type
(mag) Time Alt. Az. Time Alt. Az. Time Alt. Az.
24 Aug 4.3 01:31:55 79° WSW 01:32:43 84° NW 01:58:14 10° NE visible
24 Aug 6.3 04:32:09 10° WNW 04:47:48 50° N 05:35:00 10° E visible
25 Aug 4.2 01:19:54 82° W 01:20:26 85° NW 01:45:19 10° NE visible
25 Aug 6.2 04:19:53 10° WNW 04:35:07 50° N 05:21:30 10° E visible
26 Aug 4.2 01:07:38 86° W 01:07:55 87° NW 01:32:10 10° NE visible
26 Aug 6.2 04:07:23 10° WNW 04:22:12 49° N 05:07:44 10° E visible
27 Aug 4.2 00:55:09 89° WSW 00:55:13 90° NW 01:18:48 10° NE visible
27 Aug 6.2 03:54:39 10° WNW 04:09:05 49° N 04:53:41 10° ENE visible
28 Aug 4.2 00:42:26 87° E 00:42:26 87° E 01:05:12 10° NE visible
28 Aug 6.2 03:41:43 10° WNW 03:55:42 49° N 04:39:22 10° ENE visible
29 Aug 4.1 00:29:28 84° E 00:29:28 84° E 00:51:23 10° NE visible
29 Aug 6.2 03:28:33 10° WNW 03:42:08 49° N 04:24:47 10° ENE visible
30 Aug 4.1 00:16:15 80° E 00:16:15 80° E 00:37:21 10° NE visible
30 Aug 6.2 03:15:10 10° WNW 03:28:20 48° N 04:09:56 10° ENE visible
30 Aug 6.9 06:23:16 10° NW 06:50:59 72° NE 07:47:51 10° SE visible
31 Aug 4.1 00:02:48 77° E 00:02:48 77° E 00:23:05 10° NE visible
31 Aug 6.1 03:01:34 10° WNW 03:14:18 48° N 03:54:50 10° ENE visible
31 Aug 6.9 06:09:33 10° NW 06:36:38 71° NE 07:33:27 10° SE visible
31 Aug 4.1 23:49:06 73° E 23:49:06 73° E 00:08:37 10° NE visible
01 Sep 6.1 02:47:44 10° WNW 03:00:03 48° N 03:39:28 10° ENE visible
01 Sep 6.9 05:55:38 10° NW 06:22:02 69° NE 07:18:47 10° SE visible
01 Sep 4.0 23:35:08 70° E 23:35:08 70° E 23:53:56 10° NE visible
02 Sep 6.1 02:33:41 10° WNW 02:45:36 48° N 03:23:51 10° ENE visible
02 Sep 6.8 05:41:30 10° NW 06:07:12 68° NE 07:03:50 10° SE visible
02 Sep 4.0 23:20:54 67° E 23:20:54 67° E 23:39:01 10° NE visible
